Regional Weather Roundup
Issued by NWS Cleveland, OH

Home | Current Version | Previous Version | Graphics & Text | Print | Product List | Glossary On
Versions: 1 2 3 4 5 6 7 8 9 10 11 12 13 14 15 16 17 18 19 20 21 22 23 24 25 26 27 28 29 30 31 32 33 34 35 36 37 38 39 40 41 42 43 44 45 46 47 48 49 50
000
ASUS41 KCLE 182102
RWRCLE
OHIO REGIONAL WEATHER ROUNDUP
NATIONAL WEATHER SERVICE CLEVELAND, OH
500 PM EDT FRI APR 18 2014

NOTE: "FAIR" INDICATES FEW OR NO CLOUDS BELOW 12,000 FEET WITH NO
SIGNIFICANT WEATHER AND/OR OBSTRUCTIONS TO VISIBILITY.

OHZ001>008-015>018-024>027-034-035-043-044-182200-
   NORTHWEST OHIO

CITY           SKY/WX    TMP DP  RH WIND       PRES   REMARKS
DEFIANCE       MOSUNNY   69  40  34 NW18G24   30.23F
FINDLAY        PTSUNNY   68  39  34 W9        30.21F
TOLEDO EXPRESS PTSUNNY   66  39  37 NW8       30.22F
TOLEDO EXEC    MOSUNNY   68  40  35 NW12      30.23F
LIMA           PTSUNNY   67  39  35 W10G21    30.23F
$$

OHZ009>014-019>023-028>033-038-089-182200-
   NORTHEAST OHIO

CITY           SKY/WX    TMP DP  RH WIND       PRES   REMARKS
CLE-HOPKINS    CLOUDY    63  40  42 N9        30.26F
CLE-LAKEFRONT  PTSUNNY   56  43  61 NE7       30.23F
CUY CO. ARPT   NOT AVBL
LORAIN-ELYRIA  CLOUDY    63  41  44 N8        30.24F
ASHTABULA      CLOUDY    61  39  44 W15       30.25S
AKRON-CANTON   PTSUNNY   70  36  28 NW9       30.23F
WOOSTER        CLOUDY    63  39  41 NW12      30.23F
MANSFIELD      CLOUDY    63  39  41 W7        30.24F
YOUNGSTOWN     CLOUDY    64  35  34 NW14      30.21F
$$

OHZ042-051>053-060>062-070>072-077>081-182200-
  SOUTHWEST OHIO

CITY           SKY/WX    TMP DP  RH WIND       PRES   REMARKS
CINC-COVINGTON PTSUNNY   70  35  27 CALM      30.23F
CINC-LUNKEN    PTSUNNY   69  39  33 MISG      30.23F
HAMILTON       PTSUNNY   70  39  32 NE3       30.24F
DAYTON         PTSUNNY   68  39  34 W9G18     30.24F
WRIGHT-PAT AFB PTSUNNY   67  38  34 NW8       30.24S
DAYTON GENERAL CLOUDY    67  36  31 W6        30.23F
WILMINGTON     PTSUNNY   67  35  30 W6        30.24F
$$

OHZ036-037-039>041-045>050-054>059-063>069-073>076-082>088-182200-
  CENTRAL AND SOUTHEAST OHIO

CITY           SKY/WX    TMP DP  RH WIND       PRES   REMARKS
COLUMBUS       CLOUDY    69  34  27 NW10      30.22F
OSU AIRPORT    CLOUDY    67  36  31 NW10      30.23F
BOLTON FIELD   PTSUNNY   66  39  37 W6        30.23F
RICKENBACK AFB NOT AVBL
NEWARK         PTSUNNY   68  34  28 VRB7      30.22F
MARION         CLOUDY    65  38  36 NW7       30.24F
LANCASTER      PTSUNNY   67  36  31 W6        30.24S
ZANESVILLE     PTSUNNY   68  32  26 W8        30.22F
NEW PHILLY     PTSUNNY   68  32  26 W8G18     30.22F
$$



USA.gov is the U.S. government's official web portal to all federal, state and local government web resources and services.